map of CNX home
Great Circle Mapper logo
CNX - Airport
Location
City:  Chiang Mai, Thailand
Name:Chiang Mai International Airport
ICAO / IATA:VTCC / CNX

Details
Type:Airport (Aerodrome, Airfield)
Use:Public/Civil, Military, International (customs port of entry)
Latitude:1846'01"N (18.766847)
Longitude:9857'46"E (98.962644)
Datum:WGS 1984
Elevation:1036 ft (316 m)
Variation:0.77W (WMM2015 magnetic declination)
0.01 annual change
Runways:1
Longest:10171 × 148 ft (3100 × 45 m), paved

Time
Time Zone:UTC+7
Local Time:

Weather
METAR:VTCC 010800Z 18003KT 4000 BR NSC 34/08 Q1013 A2991 NOSIG
TAF:VTCC 281700Z 2818/0124 16007KT 9000 NSC
BECMG 2823/0100 00000KT 5000 BR NSC
BECMG 0112/0114 24005KT 7000 NSC

Related Locations
Nearby:
Farthest:SJA: 11988 mi / 19293 km
San Juan (San Juan de Marcona), PE

Find:

   beyond  
but within

Other Information
Maps:
NOTAMs:
Links:
Sources:

  
flag of Thailand   

Sectional Chart

Flight Planning
at skyvector.com

Satellite Image

Google Maps Satellite View

 

Copyright © 2004-2015 Karl L. Swartz. All rights reserved.
The Great Circle Mapper name and logo are trademarks of the Great Circle Mapper.
All other trademarks mentioned herein belong to their respective owners.
Please see credits for attibutions and further copyright information.

  Follow gcmap on Facebook Follow gcmap on Twitter Follow gcmap on Google+

hCard Microformat

Geo Microformat